Tillbaka till svenska Fidonet
English   Information   Debug  
FILM   0/18
FNEWS_PUBLISH   5034
FN_SYSOP   42247
FN_SYSOP_OLD1   71952
FTP_FIDO   0/2
FTSC_PUBLIC   0/13979
FUNNY   0/4886
GENEALOGY.EUR   0/71
GET_INFO   105
GOLDED   0/408
HAM   0/16786
HOLYSMOKE   0/6791
HOT_SITES   0/1
HTMLEDIT   0/71
HUB203   466
HUB_100   264
HUB_400   39
HUMOR   0/29
IC   0/2851
INTERNET   0/424
INTERUSER   0/3
IP_CONNECT   719
JAMNNTPD   0/233
JAMTLAND   0/47
KATTY_KORNER   0/41
LAN   0/16
LINUX-USER   0/19
LINUXHELP   0/1155
LINUX   0/22427
LINUX_BBS   0/957
mail   18.68
mail_fore_ok   249
MENSA   0/341
MODERATOR   0/102
MONTE   0/992
MOSCOW_OKLAHOMA   0/1245
MUFFIN   0/783
MUSIC   0/321
N203_STAT   938
N203_SYSCHAT   313
NET203   321
NET204   69
NET_DEV   0/10
NORD.ADMIN   0/101
NORD.CHAT   0/2572
NORD.FIDONET   189
NORD.HARDWARE   0/28
NORD.KULTUR   0/114
NORD.PROG   0/32
NORD.SOFTWARE   0/88
NORD.TEKNIK   0/58
NORD   0/453
OCCULT_CHAT   0/93
OS2BBS   0/787
OS2DOSBBS   0/580
OS2HW   0/42
OS2INET   0/37
OS2LAN   0/134
OS2PROG   0/36
OS2REXX   0/113
OS2USER-L   207
OS2   0/4835
OSDEBATE   0/18996
PASCAL   0/490
PERL   0/457
PHP   0/45
POINTS   0/405
POLITICS   25026/29554
POL_INC   0/14731
PSION   103
R20_ADMIN   1133
R20_AMATORRADIO   0/2
R20_BEST_OF_FIDONET   16
R20_CHAT   0/897
R20_DEPP   0/3
R20_DEV   400
R20_ECHO2   1933
R20_ECHOPRES   0/35
R20_ESTAT   0/719
R20_FIDONETPROG...
...RAM.MYPOINT
  0/2
R20_FIDONETPROGRAM   0/22
R20_FIDONET   0/248
R20_FILEFIND   0/24
R20_FILEFOUND   0/22
R20_HIFI   0/3
R20_INFO2   3827
R20_INTERNET   0/12940
R20_INTRESSE   0/60
R20_INTR_KOM   0/99
R20_KANDIDAT.CHAT   42
R20_KANDIDAT   28
R20_KOM_DEV   112
R20_KONTROLL   0/13360
R20_KORSET   0/18
R20_LOKALTRAFIK   0/24
R20_MODERATOR   0/1852
R20_NC   76
R20_NET200   245
R20_NETWORK.OTH...
...ERNETS
  0/13
R20_OPERATIVSYS...
...TEM.LINUX
  0/44
R20_PROGRAMVAROR   0/1
R20_REC2NEC   534
R20_SFOSM   0/341
R20_SF   0/108
R20_SPRAK.ENGLISH   0/1
R20_SQUISH   107
R20_TEST   2
R20_WORST_OF_FIDONET   20
RAR   0/9
RA_MULTI   106
RA_UTIL   0/162
REGCON.EUR   0/2072
REGCON   0/13
SCIENCE   0/1206
SF   0/239
SHAREWARE_SUPPORT   0/5146
SHAREWRE   0/14
SIMPSONS   0/169
STATS_OLD1   0/2539.065
STATS_OLD2   0/2530
STATS_OLD3   1534/2395.095
STATS_OLD4   0/1692.25
SURVIVOR   0/495
SYSOPS_CORNER   0/3
SYSOP   0/84
TAGLINES   0/112
TEAMOS2   0/4530
TECH   0/2617
TEST.444   0/105
TRAPDOOR   0/19
TREK   0/755
TUB   0/290
UFO   0/40
UNIX   0/1316
USA_EURLINK   0/102
USR_MODEMS   0/1
VATICAN   0/2740
VIETNAM_VETS   0/14
VIRUS   0/378
VIRUS_INFO   0/201
VISUAL_BASIC   0/473
WHITEHOUSE   0/5187
WIN2000   0/101
WIN32   0/30
WIN95   0/4291
WIN95_OLD1   0/70272
WINDOWS   0/1517
WWB_SYSOP   0/419
WWB_TECH   0/810
ZCC-PUBLIC   0/1
ZEC   4

 
4DOS   0/134
ABORTION   0/7
ALASKA_CHAT   0/506
ALLFIX_FILE   0/1313
ALLFIX_FILE_OLD1   0/7997
ALT_DOS   0/152
AMATEUR_RADIO   0/1039
AMIGASALE   0/14
AMIGA   0/331
AMIGA_INT   0/1
AMIGA_PROG   0/20
AMIGA_SYSOP   0/26
ANIME   0/15
ARGUS   0/924
ASCII_ART   0/340
ASIAN_LINK   0/651
ASTRONOMY   0/417
AUDIO   0/92
AUTOMOBILE_RACING   0/105
BABYLON5   0/17862
BAG   135
BATPOWER   0/361
BBBS.ENGLISH   0/382
BBSLAW   0/109
BBS_ADS   0/5290
BBS_INTERNET   0/507
BIBLE   0/3563
BINKD   0/1119
BINKLEY   0/215
BLUEWAVE   0/2173
CABLE_MODEMS   0/25
CBM   0/46
CDRECORD   0/66
CDROM   0/20
CLASSIC_COMPUTER   0/378
COMICS   0/15
CONSPRCY   0/899
COOKING   42382
COOKING_OLD1   0/24719
COOKING_OLD2   0/40862
COOKING_OLD3   0/37489
COOKING_OLD4   14638/35496
COOKING_OLD5   9370
C_ECHO   0/189
C_PLUSPLUS   0/31
DIRTY_DOZEN   0/201
DOORGAMES   0/2388
DOS_INTERNET   0/196
duplikat   6102
ECHOLIST   13228/18295
EC_SUPPORT   0/318
ELECTRONICS   0/359
ELEKTRONIK.GER   1534
ENET.LINGUISTIC   0/13
ENET.POLITICS   0/4
ENET.SOFT   0/11701
ENET.SYSOP   34388
ENET.TALKS   0/32
ENGLISH_TUTOR   0/2000
EVOLUTION   0/1335
FDECHO   0/217
FDN_ANNOUNCE   0/7068
FIDONEWS   25219
FIDONEWS_OLD1   0/49742
FIDONEWS_OLD2   0/35949
FIDONEWS_OLD3   0/30874
FIDONEWS_OLD4   0/37224
FIDO_SYSOP   12977
FIDO_UTIL   0/180
FILEFIND   0/209
FILEGATE   0/212
Möte HAM, 16786 texter
 lista första sista föregående nästa
Text 5378, 993 rader
Skriven 2012-06-28 22:01:09 av Amsat List (1:323/120.0)
Ärende: [keps] orb12180.amsa
============================
[keps] orb12180.amsa

Sender: keps-bounces@amsat.org
Return-Path: <keps-bounces@amsat.org>
X-Rcpt: craig.healy@chowda.com
X-UIDL: 1340934250.412

SB KEPS @ AMSAT  $ORB12180.O
Orbital Elements  12180.OSCAR

HR AMSAT ORBITAL ELEMENTS FOR OSCAR SATELLITES
FROM WA5QGD FORT WORTH,TX June 28, 2012
Send SUBSCRIBE KEPS/UNSUBSCRIBE KEPS to majordomo@amsat.org only
BID: ORB12180.O
TO ALL RADIO AMATEURS BT

Satellite: AO-07
Catalog number: 07530
Epoch time:      12179.59984713
Element set:     416
Inclination:      101.4024 deg
RA of node:       176.4086 deg
Eccentricity:    0.0011607
Arg of perigee:   262.7051 deg
Mean anomaly:     097.2699 deg
Mean motion:   12.53589972 rev/day
Decay rate:       -2.7e-07 rev/day^2
Epoch rev:           72135
Checksum:              313

Satellite: FO-29
Catalog number: 24278
Epoch time:      12179.83410817
Element set:    0888
Inclination:      098.5868 deg
RA of node:       279.0949 deg
Eccentricity:    0.0350858
Arg of perigee:   001.8865 deg
Mean anomaly:     358.3506 deg
Mean motion:   13.52984340 rev/day
Decay rate:       -4.4e-07 rev/day^2
Epoch rev:           78339
Checksum:              370

Satellite: SO-33
Catalog number: 25509
Epoch time:      12179.67941329
Element set:    0266
Inclination:      031.4366 deg
RA of node:       274.3159 deg
Eccentricity:    0.0352773
Arg of perigee:   295.0830 deg
Mean anomaly:     061.3578 deg
Mean motion:   14.28782466 rev/day
Decay rate:       1.36e-06 rev/day^2
Epoch rev:           71415
Checksum:              326

Satellite: RS-22
Catalog number: 27939
Epoch time:      12180.41083271
Element set:     488
Inclination:      097.8122 deg
RA of node:       020.6510 deg
Eccentricity:    0.0012456
Arg of perigee:   226.8360 deg
Mean anomaly:     133.1804 deg
Mean motion:   14.64050497 rev/day
Decay rate:       2.26e-06 rev/day^2
Epoch rev:           46752
Checksum:              284

Satellite: VO-52
Catalog number: 28650
Epoch time:      12180.12044898
Element set:     139
Inclination:      097.5955 deg
RA of node:       210.5400 deg
Eccentricity:    0.0026830
Arg of perigee:   008.0643 deg
Mean anomaly:     352.1024 deg
Mean motion:   14.83007221 rev/day
Decay rate:       7.00e-06 rev/day^2
Epoch rev:           38659
Checksum:              274

Satellite: HO-68
Catalog number: 36122
Epoch time:      12180.16054872
Element set:     595
Inclination:      100.3600 deg
RA of node:       239.2857 deg
Eccentricity:    0.0007874
Arg of perigee:   084.5300 deg
Mean anomaly:     275.6709 deg
Mean motion:   13.16296461 rev/day
Decay rate:       -4.4e-07 rev/day^2
Epoch rev:           12183
Checksum:              294

/EX
SB KEPS @ AMSAT  $ORB12180.D
Orbital Elements  12180.MICROS

HR AMSAT ORBITAL ELEMENTS FOR THE MICROSATS
FROM WA5QGD FORT WORTH,TX June 28, 2012
Send SUBSCRIBE KEPS/UNSUBSCRIBE KEPS to majordomo@amsat.org only
BID: ORB12180.D
TO ALL RADIO AMATEURS BT

Satellite: UO-11
Catalog number: 14781
Epoch time:      12179.73203756
Element set:     905
Inclination:      097.9538 deg
RA of node:       239.1605 deg
Eccentricity:    0.0009280
Arg of perigee:   006.7938 deg
Mean anomaly:     353.3396 deg
Mean motion:   14.80473899 rev/day
Decay rate:       2.30e-06 rev/day^2
Epoch rev:           52149
Checksum:              330

Satellite: AO-16
Catalog number: 20439
Epoch time:      12180.47620509
Element set:     499
Inclination:      098.4314 deg
RA of node:       123.5343 deg
Eccentricity:    0.0011480
Arg of perigee:   122.1760 deg
Mean anomaly:     238.0537 deg
Mean motion:   14.32061237 rev/day
Decay rate:        2.8e-07 rev/day^2
Epoch rev:           17161
Checksum:              269

Satellite: LO-19
Catalog number: 20442
Epoch time:      12179.86876309
Element set:    0439
Inclination:      098.3962 deg
RA of node:       125.9121 deg
Eccentricity:    0.0012651
Arg of perigee:   116.5680 deg
Mean anomaly:     243.6797 deg
Mean motion:   14.32279499 rev/day
Decay rate:       1.20e-06 rev/day^2
Epoch rev:           17171
Checksum:              323

Satellite: AO-27
Catalog number: 22825
Epoch time:      12180.44528867
Element set:     137
Inclination:      098.5738 deg
RA of node:       123.0856 deg
Eccentricity:    0.0007415
Arg of perigee:   245.8461 deg
Mean anomaly:     114.1954 deg
Mean motion:   14.29466906 rev/day
Decay rate:       -5.7e-07 rev/day^2
Epoch rev:           97808
Checksum:              335

Satellite: IO-26
Catalog number: 22826
Epoch time:      12180.44400835
Element set:     888
Inclination:      098.5697 deg
RA of node:       123.4505 deg
Eccentricity:    0.0007979
Arg of perigee:   240.7110 deg
Mean anomaly:     119.3274 deg
Mean motion:   14.29741980 rev/day
Decay rate:        5.6e-07 rev/day^2
Epoch rev:           97821
Checksum:              324

Satellite: GO-32
Catalog number: 25397
Epoch time:      12180.36446321
Element set:     810
Inclination:      098.3623 deg
RA of node:       158.5229 deg
Eccentricity:    0.0000318
Arg of perigee:   215.7977 deg
Mean anomaly:     144.3202 deg
Mean motion:   14.23280696 rev/day
Decay rate:        2.6e-07 rev/day^2
Epoch rev:           72561
Checksum:              291

Satellite: NO-44
Catalog number: 26931
Epoch time:      12179.74348262
Element set:    0075
Inclination:      067.0524 deg
RA of node:       093.1346 deg
Eccentricity:    0.0007676
Arg of perigee:   259.8587 deg
Mean anomaly:     100.1642 deg
Mean motion:   14.29808670 rev/day
Decay rate:       2.24e-06 rev/day^2
Epoch rev:           56075
Checksum:              317

